| time (UTC) | temp F | wind direction | speed MPH | gust MPH | rain 1hr in | rain 24hr in | rain mn in | humidity % | barometer mb |
| 20260904073759 | 68 | 104 | 0.0 | 0.0 | 0.00 | 0.37 | 0.01 | 73 | 1014.0 |
| 20260904073455 | 68 | 104 | 0.0 | 0.0 | 0.00 | 0.37 | 0.01 | 73 | 1013.9 |
| 20260904073153 | 68 | 104 | 0.0 | 0.0 | 0.00 | 0.37 | 0.01 | 73 | 1014.0 |
| 20260904072853 | 68 | 104 | 0.0 | 0.0 | 0.00 | 0.37 | 0.01 | 73 | 1014.0 |
| 20260904072557 | 68 | 106 | 0.0 | 0.0 | 0.00 | 0.37 | 0.01 | 73 | 1014.0 |
| 20260904072259 | 69 | 142 | 0.0 | 0.0 | 0.00 | 0.37 | 0.01 | 73 | 1013.8 |
| 20260904071957 | 69 | 160 | 0.0 | 0.0 | 0.00 | 0.37 | 0.01 | 73 | 1013.6 |
| 20260904071645 | 69 | 188 | 0.0 | 0.0 | 0.00 | 0.37 | 0.01 | 73 | 1013.8 |
| 20260904071339 | 69 | 262 | 0.0 | 0.0 | 0.00 | 0.37 | 0.01 | 73 | 1013.7 |
| 20260904071034 | 69 | 266 | 0.0 | 0.0 | 0.00 | 0.37 | 0.01 | 73 | 1013.6 |
| 20260904070722 | 69 | 261 | 0.0 | 2.0 | 0.00 | 0.37 | 0.01 | 73 | 1013.7 |
| 20260904070409 | 69 | 241 | 0.0 | 2.0 | 0.00 | 0.37 | 0.01 | 72 | 1013.6 |
| 20260904070104 | 69 | 232 | 0.0 | 2.0 | 0.00 | 0.37 | 0.01 | 73 | 1013.4 |
| 20260904065755 | 69 | 261 | 0.0 | 2.0 | 0.00 | 0.37 | 0.01 | 72 | 1013.5 |
| 20260904065445 | 69 | 270 | 0.0 | 3.0 | 0.00 | 0.37 | 0.01 | 72 | 1013.4 |
| 20260904065134 | 69 | 5 | 0.0 | 3.0 | 0.00 | 0.37 | 0.01 | 72 | 1013.4 |
| 20260904064827 | 69 | 242 | 0.0 | 6.0 | 0.00 | 0.37 | 0.01 | 72 | 1013.3 |
| 20260904064530 | 69 | 297 | 0.0 | 6.0 | 0.00 | 0.37 | 0.01 | 72 | 1013.2 |
| 20260904064220 | 69 | 97 | 1.0 | 6.0 | 0.00 | 0.37 | 0.01 | 72 | 1013.2 |
| 20260904063908 | 69 | 276 | 1.0 | 8.0 | 0.00 | 0.37 | 0.01 | 72 | 1013.1 |
| 20260904063611 | 69 | 311 | 1.0 | 8.0 | 0.00 | 0.37 | 0.01 | 72 | 1013.1 |
| 20260904062842 | 69 | 262 | 2.0 | 8.0 | 0.00 | 0.37 | 0.01 | 72 | 1012.9 |
| 20260904062117 | 69 | 309 | 1.0 | 7.0 | 0.00 | 0.37 | 0.01 | 72 | 1012.7 |
| 20260904061820 | 69 | 218 | 1.0 | 7.0 | 0.00 | 0.37 | 0.01 | 72 | 1012.7 |
| 20260904061525 | 69 | 287 | 1.0 | 9.0 | 0.00 | 0.37 | 0.01 | 72 | 1012.6 |
| 20260904060805 | 69 | 211 | 2.0 | 9.0 | 0.00 | 0.37 | 0.01 | 72 | 1012.6 |
| 20260904060452 | 69 | 314 | 2.0 | 9.0 | 0.00 | 0.37 | 0.01 | 72 | 1012.5 |
| 20260904060150 | 69 | 312 | 2.0 | 9.0 | 0.00 | 0.37 | 0.01 | 72 | 1012.6 |
| 20260904055847 | 69 | 273 | 1.0 | 9.0 | 0.00 | 0.37 | 0.01 | 72 | 1012.7 |
| 20260904055540 | 69 | 162 | 1.0 | 5.0 | 0.00 | 0.37 | 0.01 | 72 | 1012.7 |
| 20260904054818 | 69 | 325 | 1.0 | 4.0 | 0.00 | 0.37 | 0.01 | 71 | 1012.7 |
| 20260904054513 | 69 | 269 | 1.0 | 5.0 | 0.00 | 0.37 | 0.01 | 72 | 1012.8 |
| 20260904054206 | 69 | 307 | 1.0 | 5.0 | 0.00 | 0.37 | 0.01 | 72 | 1012.7 |
| 20260904053908 | 70 | 315 | 1.0 | 5.0 | 0.00 | 0.37 | 0.01 | 72 | 1012.8 |
| 20260904053600 | 70 | 282 | 1.0 | 5.0 | 0.00 | 0.37 | 0.01 | 71 | 1012.8 |
| 20260904053255 | 70 | 289 | 1.0 | 5.0 | 0.00 | 0.37 | 0.01 | 71 | 1012.9 |
| 20260904052944 | 70 | 296 | 1.0 | 5.0 | 0.00 | 0.37 | 0.01 | 71 | 1012.9 |
| 20260904052632 | 70 | 279 | 1.0 | 4.0 | 0.00 | 0.37 | 0.01 | 71 | 1013.0 |
| 20260904052320 | 70 | 299 | 1.0 | 4.0 | 0.00 | 0.37 | 0.01 | 71 | 1013.0 |
| 20260904051148 | 70 | 313 | 0.0 | 3.0 | 0.00 | 0.37 | 0.01 | 71 | 1013.0 |
| 20260904050848 | 70 | 276 | 0.0 | 3.0 | 0.00 | 0.37 | 0.01 | 71 | 1013.1 |
| 20260904050539 | 70 | 288 | 0.0 | 3.0 | 0.00 | 0.37 | 0.01 | 71 | 1013.1 |
| 20260904050230 | 70 | 314 | 0.0 | 3.0 | 0.00 | 0.37 | 0.01 | 71 | 1013.3 |
| 20260904045928 | 70 | 317 | 0.0 | 3.0 | 0.00 | 0.37 | 0.01 | 71 | 1013.2 |
| 20260904045202 | 70 | 346 | 0.0 | 3.0 | 0.00 | 0.37 | 0.01 | 71 | 1013.2 |
| 20260904044859 | 70 | 249 | 0.0 | 1.0 | 0.00 | 0.37 | 0.01 | 71 | 1013.1 |
| 20260904044547 | 70 | 301 | 0.0 | 5.0 | 0.00 | 0.37 | 0.01 | 71 | 1013.1 |
| 20260904044236 | 70 | 234 | 0.0 | 5.0 | 0.00 | 0.37 | 0.01 | 71 | 1013.2 |
| 20260904043925 | 70 | 292 | 1.0 | 5.0 | 0.00 | 0.37 | 0.01 | 71 | 1013.3 |
| 20260904043200 | 71 | 188 | 1.0 | 5.0 | 0.00 | 0.37 | 0.01 | 71 | 1013.2 |
| 20260904042852 | 71 | 206 | 0.0 | 5.0 | 0.00 | 0.37 | 0.01 | 71 | 1013.3 |
| 20260904042137 | 71 | 194 | 0.0 | 4.0 | 0.00 | 0.37 | 0.01 | 71 | 1013.4 |
| 20260904041408 | 71 | 276 | 0.0 | 4.0 | 0.00 | 0.37 | 0.01 | 70 | 1013.8 |
| 20260904040630 | 71 | 341 | 0.0 | 4.0 | 0.00 | 0.36 | 0.01 | 70 | 1013.8 |
| 20260904040320 | 71 | 194 | 0.0 | 4.0 | 0.00 | 0.36 | 0.00 | 70 | 1013.8 |
| 20260904040021 | 71 | 266 | 1.0 | 4.0 | 0.00 | 0.36 | 0.00 | 70 | 1013.9 |
| 20260904035718 | 71 | 273 | 0.0 | 4.0 | 0.00 | 0.36 | 0.37 | 70 | 1013.9 |
| 20260904034942 | 72 | 228 | 1.0 | 4.0 | 0.00 | 0.36 | 0.37 | 70 | 1014.1 |
| 20260904034637 | 72 | 239 | 1.0 | 4.0 | 0.00 | 0.36 | 0.37 | 70 | 1014.2 |
| 20260904033924 | 72 | 176 | 1.0 | 6.0 | 0.04 | 0.36 | 0.37 | 70 | 1014.5 |
| 20260904033614 | 72 | 318 | 1.0 | 6.0 | 0.04 | 0.36 | 0.37 | 70 | 1014.6 |
| 20260904033315 | 72 | 192 | 1.0 | 10.0 | 0.04 | 0.36 | 0.37 | 70 | 1014.6 |
| 20260904033012 | 73 | 209 | 1.0 | 10.0 | 0.04 | 0.36 | 0.37 | 70 | 1014.7 |
| 20260904032715 | 73 | 189 | 1.0 | 10.0 | 0.00 | 0.36 | 0.36 | 69 | 1014.9 |
| 20260904032417 | 73 | 202 | 2.0 | 10.0 | 0.00 | 0.36 | 0.36 | 69 | 1014.9 |
| 20260904032114 | 73 | 209 | 2.0 | 10.0 | 0.00 | 0.36 | 0.36 | 69 | 1015.2 |
| 20260904031810 | 73 | 246 | 2.0 | 10.0 | 0.00 | 0.36 | 0.36 | 69 | 1015.2 |
| 20260904031053 | 74 | 268 | 2.0 | 7.0 | 0.00 | 0.35 | 0.35 | 69 | 1015.3 |
| 20260904030756 | 75 | 239 | 2.0 | 7.0 | 0.00 | 0.35 | 0.35 | 69 | 1015.5 |
| 20260904030452 | 75 | 218 | 2.0 | 7.0 | 0.00 | 0.35 | 0.35 | 69 | 1015.5 |
| 20260904030144 | 75 | 248 | 1.0 | 7.0 | 0.00 | 0.35 | 0.35 | 70 | 1015.6 |
| 20260904025847 | 76 | 249 | 1.0 | 7.0 | 0.00 | 0.35 | 0.35 | 70 | 1015.5 |
| 20260904025544 | 76 | 180 | 1.0 | 7.0 | 0.00 | 0.35 | 0.35 | 70 | 1015.6 |
| 20260904025235 | 76 | 311 | 1.0 | 7.0 | 0.00 | 0.35 | 0.35 | 70 | 1015.4 |
| 20260904024057 | 77 | 162 | 1.0 | 3.0 | 0.00 | 0.35 | 0.35 | 70 | 1015.3 |
| 20260904023748 | 78 | 255 | 1.0 | 3.0 | 0.00 | 0.35 | 0.35 | 70 | 1015.4 |
| 20260904023024 | 78 | 156 | 0.0 | 3.0 | 0.00 | 0.35 | 0.35 | 70 | 1015.4 |
| 20260904022722 | 78 | 200 | 0.0 | 2.0 | 0.00 | 0.35 | 0.35 | 70 | 1015.3 |
| 20260904022419 | 78 | 246 | 0.0 | 2.0 | 0.00 | 0.35 | 0.35 | 70 | 1015.3 |
| 20260904021658 | 78 | 240 | 0.0 | 2.0 | 0.00 | 0.35 | 0.35 | 70 | 1014.8 |
| 20260904021348 | 78 | 281 | 0.0 | 2.0 | 0.04 | 0.35 | 0.35 | 70 | 1014.6 |
| 20260904021038 | 78 | 355 | 0.0 | 0.0 | 0.04 | 0.35 | 0.35 | 70 | 1014.3 |
| 20260904020728 | 78 | 30 | 0.0 | 0.0 | 0.06 | 0.35 | 0.35 | 70 | 1014.1 |
| 20260904020428 | 78 | 30 | 0.0 | 0.0 | 0.06 | 0.35 | 0.35 | 70 | 1014.1 |
| 20260904020115 | 78 | 189 | 0.0 | 0.0 | 0.06 | 0.35 | 0.35 | 69 | 1014.0 |
| 20260904015806 | 79 | 190 | 0.0 | 0.0 | 0.06 | 0.33 | 0.35 | 70 | 1014.0 |
| 20260904015504 | 79 | 220 | 0.0 | 0.0 | 0.06 | 0.33 | 0.34 | 70 | 1014.2 |
| 20260904014732 | 79 | 224 | 0.0 | 0.0 | 0.06 | 0.32 | 0.34 | 69 | 1014.2 |
| 20260904014422 | 79 | 224 | 0.0 | 0.0 | 0.05 | 0.32 | 0.33 | 69 | 1014.2 |
| 20260904014113 | 79 | 224 | 0.0 | 0.0 | 0.05 | 0.32 | 0.33 | 69 | 1014.3 |
| 20260904013356 | 79 | 224 | 0.0 | 0.0 | 0.00 | 0.32 | 0.32 | 69 | 1014.3 |
| 20260904013046 | 79 | 224 | 0.0 | 0.0 | 0.00 | 0.32 | 0.32 | 69 | 1014.2 |
| 20260904012750 | 79 | 234 | 0.0 | 0.0 | 0.00 | 0.32 | 0.32 | 69 | 1014.2 |
| 20260904012439 | 79 | 239 | 0.0 | 0.0 | 0.00 | 0.32 | 0.32 | 69 | 1014.2 |
| 20260904012131 | 79 | 240 | 0.0 | 0.0 | 0.00 | 0.31 | 0.31 | 69 | 1014.2 |
| 20260904011828 | 79 | 239 | 0.0 | 0.0 | 0.00 | 0.31 | 0.31 | 69 | 1014.1 |
| 20260904010226 | 79 | 211 | 0.0 | 0.0 | 0.00 | 0.31 | 0.31 | 68 | 1013.9 |
| 20260904005449 | 79 | 211 | 0.0 | 0.0 | 0.00 | 0.31 | 0.31 | 68 | 1013.9 |
| 20260904004730 | 80 | 211 | 0.0 | 0.0 | 0.00 | 0.31 | 0.31 | 68 | 1014.0 |
| 20260904004426 | 80 | 211 | 0.0 | 0.0 | 0.00 | 0.31 | 0.31 | 68 | 1013.9 |
| 20260904004121 | 80 | 211 | 0.0 | 0.0 | 0.00 | 0.31 | 0.31 | 68 | 1013.9 |
| 20260904003811 | 80 | 211 | 0.0 | 1.0 | 0.00 | 0.31 | 0.31 | 68 | 1013.9 |
| 20260904003501 | 80 | 221 | 0.0 | 0.0 | 0.00 | 0.31 | 0.31 | 68 | 1014.0 |
| 20260904003200 | 80 | 221 | 0.0 | 0.0 | 0.00 | 0.31 | 0.31 | 68 | 1014.0 |
| 20260904002030 | 80 | 225 | 0.0 | 0.0 | 0.00 | 0.31 | 0.31 | 67 | 1014.0 |
| 20260904001721 | 80 | 225 | 0.0 | 0.0 | 0.00 | 0.31 | 0.31 | 67 | 1014.0 |
| 20260904001413 | 80 | 225 | 0.0 | 0.0 | 0.00 | 0.31 | 0.31 | 67 | 1014.1 |
| 20260904001108 | 81 | 225 | 0.0 | 0.0 | 0.00 | 0.31 | 0.31 | 67 | 1014.1 |
| 20260904000759 | 81 | 222 | 0.0 | 0.0 | 0.00 | 0.31 | 0.31 | 66 | 1014.1 |
| 20260903235612 | 81 | 226 | 0.0 | 0.0 | 0.00 | 0.31 | 0.31 | 66 | 1014.4 |
| 20260903235307 | 81 | 226 | 0.0 | 0.0 | 0.00 | 0.31 | 0.31 | 66 | 1014.4 |
| 20260903235000 | 81 | 229 | 0.0 | 0.0 | 0.00 | 0.31 | 0.31 | 66 | 1014.3 |
| 20260903234700 | 81 | 229 | 0.0 | 0.0 | 0.00 | 0.31 | 0.31 | 65 | 1014.3 |
| 20260903234403 | 81 | 223 | 0.0 | 0.0 | 0.00 | 0.31 | 0.31 | 65 | 1014.3 |
| 20260903234058 | 82 | 221 | 0.0 | 0.0 | 0.00 | 0.31 | 0.31 | 65 | 1014.2 |
| 20260903233801 | 82 | 228 | 0.0 | 1.0 | 0.00 | 0.31 | 0.31 | 65 | 1014.1 |
| 20260903233457 | 82 | 228 | 0.0 | 1.0 | 0.00 | 0.31 | 0.31 | 65 | 1013.9 |
| 20260903232723 | 82 | 228 | 0.0 | 0.0 | 0.00 | 0.31 | 0.31 | 65 | 1013.7 |
| 20260903232417 | 82 | 228 | 0.0 | 0.0 | 0.00 | 0.31 | 0.31 | 64 | 1013.5 |
| 20260903231705 | 83 | 228 | 0.0 | 0.0 | 0.00 | 0.31 | 0.31 | 64 | 1013.4 |
| 20260903231358 | 83 | 228 | 0.0 | 0.0 | 0.00 | 0.31 | 0.31 | 64 | 1013.3 |
| 20260903231045 | 83 | 228 | 0.0 | 0.0 | 0.00 | 0.31 | 0.31 | 64 | 1013.4 |
| 20260903230742 | 83 | 229 | 0.0 | 1.0 | 0.00 | 0.31 | 0.31 | 64 | 1013.5 |
| 20260903230438 | 83 | 221 | 0.0 | 0.0 | 0.00 | 0.31 | 0.31 | 63 | 1013.6 |
| 20260903230139 | 83 | 221 | 0.0 | 1.0 | 0.00 | 0.31 | 0.31 | 63 | 1013.7 |
| 20260903225826 | 83 | 224 | 0.0 | 0.0 | 0.00 | 0.31 | 0.31 | 63 | 1013.7 |
| 20260903225513 | 83 | 224 | 0.0 | 3.0 | 0.00 | 0.31 | 0.31 | 63 | 1013.6 |
| 20260903225216 | 83 | 294 | 0.0 | 3.0 | 0.00 | 0.31 | 0.31 | 63 | 1013.7 |
| 20260903224504 | 84 | 214 | 0.0 | 2.0 | 0.00 | 0.31 | 0.31 | 62 | 1013.6 |
| 20260903224202 | 84 | 239 | 0.0 | 2.0 | 0.00 | 0.31 | 0.31 | 62 | 1013.6 |
| 20260903223857 | 84 | 249 | 0.0 | 6.0 | 0.00 | 0.31 | 0.31 | 62 | 1013.5 |
| 20260903223557 | 84 | 182 | 1.0 | 6.0 | 0.00 | 0.31 | 0.31 | 62 | 1013.5 |
| 20260903222833 | 84 | 209 | 0.0 | 6.0 | 0.00 | 0.31 | 0.31 | 61 | 1013.5 |
| 20260903222534 | 84 | 238 | 0.0 | 6.0 | 0.00 | 0.31 | 0.31 | 62 | 1013.5 |
| 20260903222238 | 84 | 218 | 0.0 | 6.0 | 0.00 | 0.31 | 0.31 | 61 | 1013.3 |
| 20260903221936 | 84 | 211 | 0.0 | 3.0 | 0.00 | 0.31 | 0.31 | 61 | 1013.1 |
| 20260903221637 | 84 | 180 | 0.0 | 4.0 | 0.00 | 0.31 | 0.31 | 61 | 1013.1 |
| 20260903221324 | 85 | 298 | 0.0 | 4.0 | 0.00 | 0.31 | 0.31 | 61 | 1013.2 |
| 20260903220550 | 85 | 224 | 1.0 | 7.0 | 0.00 | 0.31 | 0.31 | 60 | 1013.2 |
| 20260903220236 | 85 | 287 | 1.0 | 7.0 | 0.00 | 0.31 | 0.31 | 60 | 1013.2 |
| 20260903215938 | 85 | 215 | 1.0 | 7.0 | 0.00 | 0.31 | 0.31 | 60 | 1013.1 |
| 20260903215628 | 85 | 178 | 1.0 | 7.0 | 0.00 | 0.31 | 0.31 | 59 | 1013.2 |
| 20260903214905 | 85 | 248 | 2.0 | 8.0 | 0.00 | 0.31 | 0.31 | 59 | 1013.2 |
| 20260903214555 | 85 | 277 | 2.0 | 8.0 | 0.00 | 0.31 | 0.31 | 59 | 1013.1 |
| 20260903213359 | 85 | 203 | 2.0 | 8.0 | 0.00 | 0.31 | 0.31 | 58 | 1013.2 |
| 20260903213101 | 85 | 259 | 2.0 | 8.0 | 0.00 | 0.31 | 0.31 | 59 | 1013.1 |
| 20260903212752 | 85 | 30 | 2.0 | 7.0 | 0.00 | 0.31 | 0.31 | 59 | 1013.1 |
| 20260903212454 | 85 | 252 | 2.0 | 7.0 | 0.00 | 0.31 | 0.31 | 58 | 1013.1 |
| 20260903212146 | 85 | 248 | 2.0 | 10.0 | 0.00 | 0.31 | 0.31 | 58 | 1013.1 |
| 20260903211846 | 85 | 272 | 2.0 | 10.0 | 0.00 | 0.31 | 0.31 | 59 | 1013.1 |
| 20260903211537 | 85 | 203 | 2.0 | 10.0 | 0.00 | 0.31 | 0.31 | 58 | 1012.9 |
| 20260903211232 | 85 | 227 | 2.0 | 10.0 | 0.00 | 0.31 | 0.31 | 58 | 1013.0 |
| 20260903210923 | 85 | 272 | 2.0 | 10.0 | 0.00 | 0.31 | 0.31 | 58 | 1013.0 |
| 20260903210624 | 85 | 312 | 2.0 | 10.0 | 0.00 | 0.31 | 0.31 | 57 | 1013.0 |
| 20260903210325 | 85 | 221 | 2.0 | 10.0 | 0.00 | 0.31 | 0.31 | 58 | 1012.9 |
| 20260903210018 | 85 | 188 | 2.0 | 10.0 | 0.00 | 0.31 | 0.31 | 59 | 1013.0 |
| 20260903205715 | 85 | 246 | 3.0 | 10.0 | 0.00 | 0.31 | 0.31 | 59 | 1013.0 |
| 20260903205414 | 85 | 247 | 3.0 | 10.0 | 0.00 | 0.31 | 0.31 | 59 | 1013.0 |
| 20260903205116 | 85 | 244 | 3.0 | 10.0 | 0.00 | 0.31 | 0.31 | 58 | 1013.1 |
| 20260903204808 | 85 | 259 | 3.0 | 10.0 | 0.00 | 0.31 | 0.31 | 58 | 1013.1 |
| 20260903204455 | 85 | 195 | 3.0 | 8.0 | 0.00 | 0.31 | 0.31 | 58 | 1013.3 |
| 20260903204149 | 85 | 344 | 3.0 | 8.0 | 0.00 | 0.31 | 0.31 | 58 | 1013.3 |
| 20260903203853 | 85 | 205 | 2.0 | 8.0 | 0.00 | 0.31 | 0.31 | 59 | 1013.3 |
| 20260903203552 | 85 | 187 | 2.0 | 8.0 | 0.00 | 0.31 | 0.31 | 58 | 1013.3 |
| 20260903203255 | 85 | 275 | 2.0 | 9.0 | 0.00 | 0.31 | 0.31 | 58 | 1013.4 |
| 20260903202943 | 85 | 183 | 3.0 | 9.0 | 0.00 | 0.31 | 0.31 | 59 | 1013.5 |
| 20260903202647 | 85 | 269 | 3.0 | 9.0 | 0.00 | 0.31 | 0.31 | 58 | 1013.5 |
| 20260903202344 | 86 | 288 | 2.0 | 9.0 | 0.00 | 0.31 | 0.31 | 58 | 1013.5 |
| 20260903202049 | 86 | 228 | 2.0 | 9.0 | 0.00 | 0.31 | 0.31 | 57 | 1013.5 |
| 20260903201736 | 86 | 345 | 2.0 | 9.0 | 0.00 | 0.31 | 0.31 | 58 | 1013.6 |
| 20260903201008 | 86 | 275 | 3.0 | 9.0 | 0.00 | 0.31 | 0.31 | 58 | 1013.6 |
| 20260903200656 | 86 | 216 | 3.0 | 9.0 | 0.00 | 0.31 | 0.31 | 58 | 1013.6 |
| 20260903195504 | 86 | 313 | 3.0 | 11.0 | 0.00 | 0.31 | 0.31 | 58 | 1013.6 |
| 20260903195158 | 86 | 179 | 3.0 | 11.0 | 0.00 | 0.31 | 0.31 | 58 | 1013.6 |
| 20260903194848 | 86 | 269 | 2.0 | 11.0 | 0.00 | 0.31 | 0.31 | 57 | 1013.8 |
| 20260903194125 | 86 | 202 | 2.0 | 8.0 | 0.00 | 0.31 | 0.31 | 59 | 1013.8 |
| 20260903193819 | 86 | 261 | 3.0 | 8.0 | 0.00 | 0.31 | 0.31 | 58 | 1013.8 |
| 20260903193052 | 86 | 275 | 3.0 | 10.0 | 0.00 | 0.31 | 0.31 | 58 | 1013.8 |
| 20260903192321 | 86 | 248 | 3.0 | 10.0 | 0.00 | 0.31 | 0.31 | 57 | 1013.9 |
| 20260903192020 | 86 | 221 | 3.0 | 10.0 | 0.00 | 0.31 | 0.31 | 58 | 1014.1 |
| 20260903191721 | 86 | 215 | 3.0 | 10.0 | 0.00 | 0.31 | 0.31 | 60 | 1014.1 |
| 20260903191415 | 86 | 102 | 3.0 | 9.0 | 0.00 | 0.31 | 0.31 | 59 | 1014.1 |
| 20260903191107 | 86 | 50 | 3.0 | 9.0 | 0.00 | 0.31 | 0.31 | 58 | 1014.3 |
| 20260903190811 | 86 | 275 | 3.0 | 9.0 | 0.00 | 0.31 | 0.31 | 57 | 1014.3 |
| 20260903190505 | 86 | 248 | 3.0 | 9.0 | 0.00 | 0.31 | 0.31 | 56 | 1014.3 |
| 20260903190154 | 86 | 272 | 2.0 | 8.0 | 0.00 | 0.31 | 0.31 | 57 | 1014.3 |
| 20260903185429 | 86 | 325 | 2.0 | 7.0 | 0.00 | 0.31 | 0.31 | 58 | 1014.4 |
| 20260903184658 | 86 | 280 | 2.0 | 9.0 | 0.00 | 0.31 | 0.31 | 58 | 1014.6 |
| 20260903184346 | 86 | 209 | 2.0 | 10.0 | 0.00 | 0.31 | 0.31 | 57 | 1014.7 |
| 20260903183624 | 85 | 350 | 2.0 | 10.0 | 0.00 | 0.31 | 0.31 | 57 | 1014.8 |
| 20260903180908 | 84 | 200 | 4.0 | 10.0 | 0.00 | 0.32 | 0.31 | 60 | 1015.3 |
| 20260903180608 | 84 | 200 | 4.0 | 10.0 | 0.00 | 0.32 | 0.31 | 60 | 1015.3 |
| 20260903180302 | 84 | 200 | 4.0 | 10.0 | 0.00 | 0.32 | 0.31 | 60 | 1015.3 |
| 20260903175957 | 84 | 200 | 4.0 | 10.0 | 0.00 | 0.32 | 0.31 | 60 | 1015.3 |
| 20260903175659 | 84 | 252 | 4.0 | 10.0 | 0.00 | 0.32 | 0.31 | 59 | 1015.4 |
| 20260903175402 | 84 | 132 | 4.0 | 10.0 | 0.00 | 0.32 | 0.31 | 60 | 1015.4 |
| 20260903175052 | 84 | 284 | 3.0 | 10.0 | 0.00 | 0.32 | 0.31 | 60 | 1015.4 |
| 20260903174751 | 84 | 292 | 3.0 | 9.0 | 0.00 | 0.32 | 0.31 | 59 | 1015.5 |
| 20260903174441 | 84 | 193 | 3.0 | 9.0 | 0.00 | 0.32 | 0.31 | 59 | 1015.6 |
| 20260903174136 | 84 | 0 | 3.0 | 11.0 | 0.00 | 0.32 | 0.31 | 60 | 1015.6 |
| 20260903172947 | 83 | 215 | 3.0 | 11.0 | 0.00 | 0.32 | 0.31 | 60 | 1015.7 |
| 20260903172633 | 83 | 226 | 3.0 | 11.0 | 0.00 | 0.33 | 0.31 | 61 | 1015.7 |
| 20260903172323 | 83 | 182 | 2.0 | 9.0 | 0.00 | 0.33 | 0.31 | 64 | 1015.8 |
| 20260903171600 | 82 | 316 | 3.0 | 9.0 | 0.00 | 0.34 | 0.31 | 66 | 1015.7 |
| 20260903171302 | 81 | 203 | 3.0 | 8.0 | 0.00 | 0.34 | 0.31 | 66 | 1015.8 |
| 20260903170547 | 80 | 324 | 2.0 | 11.0 | 0.00 | 0.34 | 0.31 | 67 | 1015.8 |
| 20260903170234 | 80 | 145 | 2.0 | 11.0 | 0.00 | 0.35 | 0.31 | 69 | 1015.8 |
| 20260903165516 | 79 | 267 | 3.0 | 11.0 | 0.00 | 0.35 | 0.31 | 71 | 1015.9 |
| 20260903165216 | 79 | 70 | 3.0 | 11.0 | 0.00 | 0.36 | 0.31 | 71 | 1015.9 |
| 20260903164911 | 78 | 321 | 3.0 | 11.0 | 0.00 | 0.36 | 0.31 | 72 | 1016.0 |
| 20260903164607 | 78 | 9 | 3.0 | 11.0 | 0.00 | 0.36 | 0.31 | 72 | 1016.1 |
| 20260903164308 | 77 | 324 | 3.0 | 11.0 | 0.00 | 0.37 | 0.31 | 73 | 1016.2 |
| 20260903164002 | 77 | 289 | 3.0 | 11.0 | 0.00 | 0.37 | 0.31 | 73 | 1016.3 |
| 20260903163658 | 77 | 218 | 3.0 | 11.0 | 0.00 | 0.38 | 0.31 | 74 | 1016.4 |
| 20260903163359 | 76 | 206 | 3.0 | 11.0 | 0.00 | 0.38 | 0.31 | 75 | 1016.3 |
| 20260903163046 | 76 | 232 | 3.0 | 11.0 | 0.00 | 0.39 | 0.31 | 74 | 1016.3 |
| 20260903162737 | 75 | 175 | 3.0 | 11.0 | 0.00 | 0.39 | 0.31 | 74 | 1016.5 |
| 20260903162426 | 75 | 259 | 3.0 | 12.0 | 0.00 | 0.40 | 0.31 | 74 | 1016.5 |
| 20260903162124 | 75 | 173 | 3.0 | 12.0 | 0.00 | 0.40 | 0.31 | 75 | 1016.7 |
| 20260903161826 | 75 | 281 | 4.0 | 12.0 | 0.00 | 0.41 | 0.31 | 74 | 1016.7 |
| 20260903161522 | 75 | 225 | 4.0 | 12.0 | 0.00 | 0.41 | 0.31 | 75 | 1016.8 |
| 20260903161209 | 75 | 231 | 4.0 | 12.0 | 0.00 | 0.41 | 0.31 | 75 | 1016.8 |
| 20260903160857 | 75 | 232 | 5.0 | 12.0 | 0.00 | 0.41 | 0.31 | 76 | 1016.8 |
| 20260903160559 | 75 | 274 | 3.0 | 12.0 | 0.00 | 0.41 | 0.31 | 77 | 1016.9 |
| 20260903160250 | 74 | 351 | 3.0 | 11.0 | 0.00 | 0.41 | 0.31 | 76 | 1016.8 |
| 20260903155936 | 74 | 283 | 3.0 | 11.0 | 0.00 | 0.41 | 0.31 | 76 | 1016.9 |
| 20260903155627 | 74 | 249 | 2.0 | 10.0 | 0.00 | 0.41 | 0.31 | 77 | 1017.1 |
| 20260903155323 | 74 | 311 | 3.0 | 10.0 | 0.00 | 0.41 | 0.31 | 77 | 1017.2 |
| 20260903155016 | 74 | 280 | 3.0 | 10.0 | 0.00 | 0.42 | 0.31 | 77 | 1017.3 |
| 20260903154707 | 73 | 295 | 3.0 | 10.0 | 0.00 | 0.42 | 0.31 | 77 | 1017.3 |
| 20260903154408 | 73 | 0 | 2.0 | 8.0 | 0.00 | 0.42 | 0.31 | 77 | 1017.1 |
| 20260903154058 | 73 | 283 | 2.0 | 6.0 | 0.00 | 0.43 | 0.31 | 77 | 1017.1 |
| 20260903153755 | 73 | 258 | 1.0 | 6.0 | 0.00 | 0.45 | 0.31 | 78 | 1017.0 |
| 20260903153454 | 73 | 336 | 1.0 | 6.0 | 0.00 | 0.50 | 0.31 | 77 | 1017.0 |
| 20260903153150 | 73 | 171 | 1.0 | 6.0 | 0.00 | 0.58 | 0.31 | 78 | 1016.9 |
| 20260903152841 | 73 | 285 | 1.0 | 6.0 | 0.00 | 0.60 | 0.31 | 78 | 1017.1 |
| 20260903152536 | 73 | 291 | 0.0 | 5.0 | 0.00 | 0.62 | 0.31 | 78 | 1017.1 |
| 20260903152226 | 72 | 269 | 1.0 | 3.0 | 0.00 | 0.63 | 0.31 | 78 | 1017.3 |
| 20260903151450 | 72 | 288 | 0.0 | 3.0 | 0.00 | 0.63 | 0.31 | 78 | 1017.4 |
| 20260903151154 | 72 | 301 | 0.0 | 2.0 | 0.00 | 0.63 | 0.31 | 78 | 1017.1 |
| 20260903150851 | 72 | 306 | 0.0 | 6.0 | 0.00 | 0.63 | 0.31 | 78 | 1017.2 |
| 20260903150547 | 71 | 315 | 1.0 | 6.0 | 0.00 | 0.63 | 0.31 | 78 | 1017.3 |
| 20260903150242 | 71 | 269 | 1.0 | 11.0 | 0.00 | 0.63 | 0.31 | 78 | 1017.1 |
| 20260903145935 | 71 | 246 | 1.0 | 11.0 | 0.00 | 0.63 | 0.31 | 77 | 1017.1 |
| 20260903145623 | 71 | 221 | 2.0 | 11.0 | 0.00 | 0.63 | 0.31 | 77 | 1016.8 |
| 20260903145322 | 71 | 221 | 3.0 | 11.0 | 0.00 | 0.63 | 0.31 | 77 | 1016.7 |
| 20260903145023 | 71 | 170 | 3.0 | 11.0 | 0.00 | 0.63 | 0.31 | 77 | 1016.7 |
| 20260903144714 | 71 | 196 | 4.0 | 11.0 | 0.04 | 0.63 | 0.31 | 77 | 1016.7 |
| 20260903144402 | 71 | 237 | 3.0 | 11.0 | 0.05 | 0.63 | 0.31 | 77 | 1016.7 |
| 20260903143638 | 71 | 273 | 3.0 | 8.0 | 0.13 | 0.63 | 0.31 | 77 | 1016.9 |
| 20260903143325 | 71 | 161 | 2.0 | 8.0 | 0.17 | 0.62 | 0.31 | 77 | 1017.1 |
| 20260903143010 | 72 | 194 | 2.0 | 7.0 | 0.10 | 0.61 | 0.30 | 77 | 1017.7 |
| 20260903142704 | 72 | 213 | 1.0 | 7.0 | 0.16 | 0.61 | 0.28 | 77 | 1018.1 |
| 20260903141938 | 72 | 208 | 1.0 | 5.0 | 0.10 | 0.59 | 0.27 | 77 | 1018.2 |
| 20260903141633 | 72 | 153 | 1.0 | 5.0 | 0.10 | 0.59 | 0.27 | 77 | 1018.2 |
| 20260903141324 | 72 | 225 | 1.0 | 5.0 | 0.10 | 0.58 | 0.26 | 77 | 1018.3 |
| 20260903141023 | 72 | 259 | 1.0 | 5.0 | 0.00 | 0.58 | 0.26 | 77 | 1018.4 |
| 20260903140722 | 72 | 227 | 1.0 | 3.0 | 0.00 | 0.57 | 0.26 | 77 | 1018.6 |
| 20260903140412 | 72 | 177 | 1.0 | 3.0 | 0.00 | 0.57 | 0.25 | 77 | 1018.6 |
| 20260903140107 | 72 | 204 | 1.0 | 3.0 | 0.00 | 0.57 | 0.25 | 77 | 1018.4 |
| 20260903135757 | 72 | 166 | 1.0 | 10.0 | 0.00 | 0.57 | 0.25 | 77 | 1018.4 |
| 20260903134603 | 72 | 342 | 3.0 | 10.0 | 0.00 | 0.57 | 0.25 | 77 | 1018.6 |
| 20260903134251 | 72 | 319 | 2.0 | 10.0 | 0.00 | 0.57 | 0.25 | 78 | 1018.8 |
| 20260903133943 | 72 | 28 | 3.0 | 10.0 | 0.00 | 0.57 | 0.25 | 78 | 1018.6 |
| 20260903133645 | 72 | 292 | 3.0 | 10.0 | 0.00 | 0.57 | 0.25 | 78 | 1018.0 |
| 20260903132922 | 72 | 270 | 3.0 | 10.0 | 0.00 | 0.57 | 0.25 | 78 | 1017.5 |
| 20260903132608 | 72 | 289 | 3.0 | 10.0 | 0.00 | 0.57 | 0.25 | 78 | 1017.3 |
| 20260903132306 | 72 | 260 | 3.0 | 10.0 | 0.00 | 0.57 | 0.25 | 78 | 1017.3 |
| 20260903131554 | 71 | 265 | 2.0 | 7.0 | 0.00 | 0.57 | 0.25 | 78 | 1017.3 |
| 20260903131255 | 71 | 323 | 1.0 | 7.0 | 0.00 | 0.57 | 0.25 | 78 | 1017.0 |
| 20260903130950 | 71 | 156 | 1.0 | 7.0 | 0.00 | 0.57 | 0.25 | 78 | 1016.8 |
| 20260903130647 | 71 | 243 | 1.0 | 7.0 | 0.00 | 0.57 | 0.25 | 78 | 1016.9 |
| 20260903130340 | 71 | 268 | 1.0 | 7.0 | 0.00 | 0.57 | 0.25 | 78 | 1016.9 |
| 20260903125605 | 71 | 155 | 1.0 | 4.0 | 0.00 | 0.57 | 0.25 | 78 | 1017.3 |
| 20260903125306 | 71 | 227 | 1.0 | 7.0 | 0.00 | 0.57 | 0.25 | 78 | 1017.6 |
| 20260903125008 | 71 | 259 | 1.0 | 7.0 | 0.00 | 0.57 | 0.25 | 78 | 1017.7 |
| 20260903124712 | 71 | 154 | 2.0 | 7.0 | 0.00 | 0.57 | 0.25 | 78 | 1017.8 |
| 20260903124401 | 71 | 282 | 2.0 | 7.0 | 0.00 | 0.57 | 0.25 | 78 | 1017.7 |
| 20260903124053 | 71 | 277 | 2.0 | 8.0 | 0.00 | 0.57 | 0.25 | 78 | 1017.8 |
| 20260903123753 | 71 | 156 | 1.0 | 8.0 | 0.00 | 0.57 | 0.25 | 78 | 1017.9 |
| 20260903123447 | 71 | 275 | 1.0 | 8.0 | 0.00 | 0.57 | 0.25 | 78 | 1017.9 |
| 20260903123150 | 71 | 279 | 2.0 | 8.0 | 0.00 | 0.57 | 0.25 | 78 | 1017.7 |
| 20260903122851 | 71 | 291 | 2.0 | 8.0 | 0.00 | 0.57 | 0.25 | 78 | 1017.6 |
| 20260903122551 | 71 | 281 | 1.0 | 8.0 | 0.00 | 0.57 | 0.25 | 78 | 1017.8 |
| 20260903122238 | 71 | 277 | 1.0 | 6.0 | 0.00 | 0.57 | 0.25 | 78 | 1017.8 |
| 20260903121926 | 70 | 256 | 1.0 | 6.0 | 0.00 | 0.57 | 0.25 | 78 | 1017.7 |
| 20260903121154 | 70 | 219 | 1.0 | 6.0 | 0.00 | 0.57 | 0.25 | 78 | 1017.7 |
| 20260903120848 | 70 | 236 | 1.0 | 6.0 | 0.00 | 0.57 | 0.25 | 78 | 1017.6 |
| 20260903120547 | 70 | 283 | 0.0 | 3.0 | 0.00 | 0.57 | 0.25 | 78 | 1017.5 |
| 20260903120237 | 70 | 271 | 0.0 | 3.0 | 0.00 | 0.57 | 0.25 | 78 | 1017.3 |
| 20260903115932 | 70 | 258 | 0.0 | 3.0 | 0.00 | 0.57 | 0.25 | 78 | 1017.2 |
| 20260903115154 | 70 | 228 | 0.0 | 3.0 | 0.00 | 0.57 | 0.25 | 78 | 1017.2 |
| 20260903114008 | 69 | 278 | 0.0 | 3.0 | 0.00 | 0.57 | 0.25 | 78 | 1017.5 |
| 20260903113658 | 69 | 281 | 0.0 | 3.0 | 0.00 | 0.57 | 0.25 | 78 | 1017.5 |
| 20260903113354 | 69 | 273 | 0.0 | 2.0 | 0.00 | 0.57 | 0.25 | 78 | 1017.2 |
| 20260903113055 | 69 | 311 | 0.0 | 2.0 | 0.00 | 0.57 | 0.25 | 78 | 1017.1 |
| 20260903112758 | 69 | 334 | 0.0 | 1.0 | 0.00 | 0.57 | 0.25 | 78 | 1016.9 |
| 20260903112448 | 69 | 93 | 0.0 | 1.0 | 0.00 | 0.57 | 0.25 | 78 | 1016.9 |
| 20260903112137 | 69 | 42 | 0.0 | 1.0 | 0.00 | 0.57 | 0.25 | 78 | 1016.9 |
| 20260903111828 | 69 | 42 | 0.0 | 7.0 | 0.00 | 0.57 | 0.25 | 78 | 1017.0 |
| 20260903111532 | 69 | 314 | 0.0 | 7.0 | 0.00 | 0.57 | 0.25 | 78 | 1017.1 |
| 20260903111236 | 69 | 0 | 0.0 | 7.0 | 0.00 | 0.57 | 0.25 | 78 | 1017.1 |
| 20260903110939 | 69 | 0 | 0.0 | 2.0 | 0.04 | 0.57 | 0.25 | 78 | 1017.1 |
| 20260903110209 | 69 | 265 | 0.0 | 2.0 | 0.08 | 0.57 | 0.25 | 78 | 1017.2 |
| 20260903105902 | 69 | 9 | 0.0 | 7.0 | 0.13 | 0.57 | 0.25 | 78 | 1017.4 |
| 20260903105600 | 69 | 17 | 1.0 | 7.0 | 0.16 | 0.56 | 0.25 | 77 | 1017.2 |
| 20260903104841 | 69 | 161 | 1.0 | 5.0 | 0.13 | 0.55 | 0.23 | 77 | 1017.1 |
| 20260903104535 | 69 | 154 | 1.0 | 5.0 | 0.06 | 0.54 | 0.21 | 77 | 1017.7 |
| 20260903104238 | 69 | 177 | 1.0 | 5.0 | 0.06 | 0.53 | 0.21 | 77 | 1018.3 |
| 20260903103927 | 69 | 222 | 0.0 | 3.0 | 0.00 | 0.53 | 0.21 | 77 | 1018.4 |
| 20260903103629 | 69 | 271 | 0.0 | 3.0 | 0.00 | 0.53 | 0.21 | 77 | 1018.3 |
| 20260903103329 | 69 | 236 | 1.0 | 2.0 | 0.00 | 0.52 | 0.20 | 77 | 1018.3 |
| 20260903103022 | 69 | 252 | 0.0 | 2.0 | 0.00 | 0.52 | 0.20 | 77 | 1018.2 |
| 20260903102719 | 69 | 247 | 0.0 | 2.0 | 0.00 | 0.52 | 0.20 | 77 | 1017.7 |
| 20260903102420 | 69 | 57 | 0.0 | 2.0 | 0.00 | 0.52 | 0.20 | 77 | 1017.5 |
| 20260903102117 | 69 | 311 | 0.0 | 1.0 | 0.00 | 0.52 | 0.20 | 77 | 1017.9 |
| 20260903101816 | 69 | 311 | 0.0 | 1.0 | 0.00 | 0.52 | 0.20 | 77 | 1018.1 |
| 20260903101518 | 69 | 178 | 0.0 | 3.0 | 0.00 | 0.52 | 0.20 | 77 | 1018.2 |
| 20260903100756 | 69 | 208 | 0.0 | 1.0 | 0.00 | 0.52 | 0.20 | 77 | 1018.2 |
| 20260903100448 | 69 | 211 | 0.0 | 3.0 | 0.00 | 0.51 | 0.19 | 77 | 1018.2 |
| 20260903100146 | 69 | 183 | 0.0 | 3.0 | 0.04 | 0.51 | 0.19 | 77 | 1018.3 |
| 20260903095848 | 69 | 183 | 0.0 | 1.0 | 0.05 | 0.51 | 0.19 | 77 | 1018.4 |
| 20260903095549 | 70 | 148 | 0.0 | 0.0 | 0.06 | 0.51 | 0.19 | 77 | 1018.7 |
| 20260903095246 | 70 | 126 | 0.0 | 0.0 | 0.10 | 0.51 | 0.19 | 77 | 1018.9 |
| 20260903094949 | 70 | 167 | 0.0 | 0.0 | 0.15 | 0.51 | 0.19 | 77 | 1019.3 |
| 20260903094641 | 70 | 167 | 0.0 | 3.0 | 0.15 | 0.50 | 0.18 | 77 | 1019.6 |
| 20260903094341 | 70 | 279 | 0.0 | 3.0 | 0.08 | 0.49 | 0.18 | 77 | 1019.7 |
| 20260903094036 | 70 | 286 | 0.0 | 3.0 | 0.10 | 0.49 | 0.17 | 77 | 1019.6 |
| 20260903093731 | 70 | 306 | 0.0 | 3.0 | 0.15 | 0.49 | 0.17 | 77 | 1019.3 |
| 20260903093435 | 70 | 70 | 0.0 | 3.0 | 0.00 | 0.48 | 0.16 | 77 | 1018.8 |
| 20260903093138 | 70 | 117 | 0.0 | 2.0 | 0.00 | 0.47 | 0.16 | 77 | 1018.8 |
| 20260903092827 | 70 | 320 | 0.0 | 0.0 | 0.00 | 0.47 | 0.15 | 77 | 1019.0 |
| 20260903092518 | 70 | 320 | 0.0 | 0.0 | 0.00 | 0.47 | 0.15 | 77 | 1018.9 |
| 20260903092220 | 70 | 320 | 0.0 | 0.0 | 0.00 | 0.47 | 0.15 | 77 | 1018.9 |
| 20260903091919 | 70 | 320 | 0.0 | 0.0 | 0.04 | 0.47 | 0.15 | 77 | 1018.8 |
| 20260903091619 | 70 | 320 | 0.0 | 0.0 | 0.05 | 0.47 | 0.15 | 77 | 1018.7 |
| 20260903091307 | 70 | 320 | 0.0 | 0.0 | 0.06 | 0.47 | 0.15 | 77 | 1018.6 |
| 20260903090959 | 70 | 320 | 0.0 | 5.0 | 0.12 | 0.47 | 0.15 | 77 | 1018.4 |
| 20260903090700 | 70 | 319 | 0.0 | 5.0 | 0.21 | 0.47 | 0.15 | 77 | 1018.4 |
| 20260903090353 | 70 | 140 | 1.0 | 5.0 | 0.34 | 0.46 | 0.13 | 77 | 1018.4 |
| 20260903090052 | 70 | 127 | 1.0 | 5.0 | 1.54 | 0.41 | 0.10 | 77 | 1018.5 |
| 20260903085753 | 70 | 159 | 1.0 | 5.0 | 0.69 | 0.36 | 0.05 | 77 | 1019.1 |
| 20260903085444 | 70 | 229 | 1.0 | 5.0 | 0.00 | 0.35 | 0.03 | 77 | 1019.1 |
| 20260903085134 | 70 | 259 | 1.0 | 4.0 | 0.00 | 0.35 | 0.03 | 77 | 1018.9 |
| 20260903084831 | 70 | 101 | 1.0 | 4.0 | 0.00 | 0.35 | 0.03 | 77 | 1018.5 |
| 20260903084520 | 70 | 61 | 1.0 | 3.0 | 0.00 | 0.35 | 0.03 | 77 | 1018.3 |
| 20260903084215 | 70 | 47 | 1.0 | 3.0 | 0.00 | 0.35 | 0.03 | 77 | 1018.3 |
| 20260903083904 | 70 | 104 | 0.0 | 2.0 | 0.00 | 0.35 | 0.03 | 77 | 1018.5 |
| 20260903083605 | 70 | 20 | 0.0 | 2.0 | 0.00 | 0.35 | 0.03 | 77 | 1018.7 |
| 20260903082832 | 70 | 140 | 0.0 | 0.0 | 0.00 | 0.34 | 0.02 | 77 | 1018.1 |
| 20260903082523 | 70 | 139 | 0.0 | 0.0 | 0.00 | 0.34 | 0.02 | 77 | 1018.1 |
| 20260903082222 | 70 | 139 | 0.0 | 0.0 | 0.00 | 0.34 | 0.02 | 77 | 1018.2 |
| 20260903081911 | 70 | 140 | 0.0 | 0.0 | 0.00 | 0.34 | 0.02 | 77 | 1018.2 |
| 20260903081604 | 71 | 135 | 0.0 | 0.0 | 0.00 | 0.34 | 0.02 | 76 | 1018.2 |
| 20260903081256 | 71 | 62 | 0.0 | 2.0 | 0.00 | 0.34 | 0.02 | 77 | 1018.4 |
| 20260903080951 | 71 | 75 | 0.0 | 2.0 | 0.00 | 0.34 | 0.02 | 76 | 1018.3 |
| 20260903080649 | 71 | 90 | 0.0 | 2.0 | 0.00 | 0.34 | 0.02 | 76 | 1018.2 |
| 20260903080353 | 71 | 121 | 0.0 | 2.0 | 0.00 | 0.34 | 0.02 | 76 | 1018.1 |
| 20260903075629 | 71 | 5 | 0.0 | 4.0 | 0.05 | 0.34 | 0.02 | 76 | 1018.2 |
| 20260903074421 | 71 | 113 | 0.0 | 1.0 | 0.00 | 0.33 | 0.01 | 76 | 1017.9 |
| 20260903074122 | 71 | 148 | 0.0 | 4.0 | 0.00 | 0.33 | 0.01 | 76 | 1017.8 |